Location: Unspecified
(36.5600°N, 136.6600°E)
Time: 10:02:14
(UTC+09:00)

Hubble Space Telescope - Visible Passes

Search period start: 21 June 2024 00:00
Search period end: 01 July 2024 00:00
Orbit: 510 x 514 km, 28.5° (Epoch: 20 June)

Date Brightness Start Highest point End Pass type
(mag) Time Alt. Az. Time Alt. Az. Time Alt. Az.
27 Jun 2.7 04:06:12 10° SSW 04:08:39 16° SSE 04:11:06 10° SE visible
28 Jun 2.6 03:46:50 10° SSW 03:49:26 17° SSE 03:52:04 10° SE visible
29 Jun 2.4 03:28:35 15° SSW 03:30:13 18° SSE 03:33:00 10° ESE visible
30 Jun 2.2 03:10:20 19° S 03:10:59 19° SSE 03:13:53 10° ESE visible
